Location: Doux
(49.5045°N, 4.4321°E)
Time: 14:13:20
(UTC+00:00)

NOSS 3-4 (A) - Pass Details

Date: 23 May 2024
Orbit: 801 x 1410 km, 63.4° (Epoch: 04 June)

Event Time Altitude Azimuth Distance (km) Brightness Sun altitude
Rises 00:33:11 0° 315° (NW) 3,761 7.0 -18.8°
Reaches altitude 10° 00:35:41 10° 311° (NW) 2,889 6.3 -18.7°
Maximum altitude 00:42:22 53° 237° (WSW) 1,419 4.0 -18.5°
Enters shadow 00:47:12 23° 171° (S) 2,386 5.0 -18.2°
